User: anonymous   Login
Location: Unspecified
(0.0000°N, 0.0000°E)
Time: 10:14:24
(UTC+00:00)
Language:

CZ-11 R/B - Orbit

View from above orbital plane
View from above orbital plane
View from above satellite
View from above satellite

Ground track
Ground track

The orbit data is extracted from the following two-line orbital elements,

1 41847U 16066G   19082.07570391  .00000044  00000-0  16412-4 0  9991
2 41847  98.7178 121.3554 0366863 135.4698 227.6600 14.37965204124400
Epoch (UTC): 23 March 2019 01:49:00
Eccentricity: 0.0366863
inclination: 98.7178°
perigee height: 503 km
apogee height: 1027 km
right ascension of ascending node: 121.3554°
argument of perigee: 135.4698°
revolutions per day: 14.37965204
mean anomaly at epoch: 227.6600°
orbit number at epoch: 12440

The dashed part of the orbit path shows where the satellite is in the earth's shadow,  

DLR